Location: Quincy
(39.9360°N, 91.4100°W)
Time: 20:45:21
(UTC-05:00)

ISS - Visible Passes

Search period start: 16 May 2021 00:00
Search period end: 26 May 2021 00:00
Orbit: 417 x 422 km, 51.6° (Epoch: 16 May)

Date Brightness Start Highest point End Pass type
(mag) Time Alt. Az. Time Alt. Az. Time Alt. Az.
16 May -0.2 00:29:15 10° NNW 00:30:31 12° N 00:31:49 10° NNE visible
16 May -0.6 02:06:18 10° NNW 02:08:27 16° NNE 02:10:35 10° NE visible
16 May -3.3 03:42:27 10° NW 03:45:49 61° NE 03:49:08 10° ESE visible
16 May -2.0 22:02:06 10° W 22:05:11 34° NNW 22:08:18 10° NE visible
16 May -0.4 23:41:11 10° NW 23:42:47 13° N 23:44:23 10° NNE visible
17 May -0.4 01:19:01 10° NNW 01:20:45 13° N 01:21:38 12° NNE visible
17 May -1.5 03:00:11 20° E 03:00:11 20° E 03:01:28 10° E visible
17 May -2.7 04:33:42 20° W 04:34:58 25° SW 04:37:47 10° S visible
17 May -2.9 21:14:22 10° WSW 21:17:40 52° NNW 21:20:58 10° NE visible
17 May -0.5 22:53:04 10° NW 22:55:04 15° NNW 22:57:05 10° NNE visible
18 May -0.4 00:31:39 10° NNW 00:33:00 12° N 00:34:21 10° NNE visible
18 May -0.8 22:04:57 10° WNW 22:07:23 18° NNW 22:09:49 10° NNE visible
18 May -0.4 23:44:06 10° NNW 23:45:15 11° N 23:46:26 10° NNE visible
19 May -0.5 01:20:32 10° NNW 01:21:03 12° NNW 01:21:03 12° NNW visible
19 May -1.2 21:16:56 10° W 21:19:45 24° NNW 21:22:33 10° NNE visible
19 May -0.5 22:56:13 10° NNW 22:57:30 12° N 22:58:45 10° NNE visible
20 May -0.6 00:33:16 10° NNW 00:34:54 15° N 00:34:54 15° N visible
20 May -0.6 22:08:09 10° NW 22:09:44 13° N 22:11:20 10° NNE visible
20 May -0.7 23:45:58 10° NNW 23:47:42 13° N 23:48:49 12° NNE visible
21 May -0.7 21:20:01 10° NW 21:22:01 15° NNW 21:24:01 10° NNE visible
21 May -0.6 22:58:36 10° NNW 22:59:56 12° N 23:01:17 10° NNE visible
22 May -0.7 00:34:44 10° NNW 00:35:42 16° NNW 00:35:42 16° NNW visible
22 May -0.6 22:11:01 10° NNW 22:12:11 11° N 22:13:20 10° NNE visible
22 May -1.2 23:47:27 10° NNW 23:49:42 19° NNE 23:49:42 19° NNE visible
23 May -0.7 21:23:09 10° NNW 21:24:24 12° N 21:25:40 10° NNE visible
23 May -1.1 23:00:11 10° NNW 23:02:19 16° NNE 23:03:43 13° NE visible
24 May -0.6 00:36:19 10° NW 00:36:39 12° NW 00:36:39 12° NW visible
24 May -0.9 22:12:52 10° NNW 22:14:36 13° NNE 22:16:18 10° NE visible
24 May -1.4 23:48:57 10° NW 23:50:42 25° NNW 23:50:42 25° NNW visible
25 May -0.8 21:25:29 10° NNW 21:26:50 12° N 21:28:10 10° NNE visible
25 May -2.0 23:01:37 10° NNW 23:04:32 26° NNE 23:04:45 26° NNE visible
